Monday, December 18, 2017, 5:53 AM EST
Back to Local

KMUI, Muir Army Air Field / Indiantown

Location: Jonestown, PA, United States Lat: 40.433
Local Time: 5:53 AM EST (10:53 GMT) Lon: -76.567
Time Zone: US/Eastern Elev: 488 ft

Show me the last for .
Show Decoded

2017-12-18 04:56 METAR KMUI 180956Z AUTO 00000KT 10SM FEW055 SCT070 BKN090 01/00 A3011 RMK AO2
                 SLP204 T00071003 FZRANO $ =
2017-12-18 03:56 METAR KMUI 180856Z AUTO 00000KT 10SM OVC055 01/M01 A3013 RMK AO2 SLP210
                 T00141008 57005 FZRANO $ =
2017-12-18 02:56 METAR KMUI 180756Z AUTO 00000KT 10SM BKN060 01/M01 A3013 RMK AO2 SLP210
                 T00111007 FZRANO $ =
2017-12-18 01:56 METAR KMUI 180656Z AUTO 00000KT 10SM CLR 01/M01 A3013 RMK AO2 SLP210 T00121014
                 FZRANO $ =
2017-12-18 00:56 METAR KMUI 180556Z AUTO 00000KT 10SM OVC070 02/M02 A3014 RMK AO2 SLP214
                 T00161020 10018 20002 55011 FZRANO $ =
2017-12-17 23:56 METAR KMUI 180456Z AUTO 05003KT 10SM OVC080 02/M02 A3015 RMK AO2 SLP217
                 T00151016 400331032 FZRANO $ =
2017-12-17 22:56 METAR KMUI 180356Z AUTO 06004KT 10SM OVC100 01/M01 A3015 RMK AO2 SLP217
                 T00121012 FZRANO $ =
2017-12-17 21:56 METAR KMUI 180256Z AUTO 07003KT 10SM OVC060 02/M01 A3017 RMK AO2 SLP224
                 T00161015 57012 FZRANO $ =
2017-12-17 20:56 METAR KMUI 180156Z AUTO 06003KT 10SM SCT060 02/M01 A3019 RMK AO2 SLP232
                 T00161011 FZRANO $ =
2017-12-17 19:56 METAR KMUI 180056Z AUTO 03003KT 10SM BKN100 OVC130 01/M01 A3020 RMK AO2 SLP235
                 T00111011 FZRANO $ =
2017-12-17 18:56 METAR KMUI 172356Z AUTO 03003KT 10SM BKN150 00/00 A3021 RMK AO2 SLP239 T00021001
                 10033 20002 50011 FZRANO $ =
2017-12-17 17:56 METAR KMUI 172256Z AUTO 00000KT 10SM BKN130 01/M01 A3021 RMK AO2 SLP238
                 T00111007 FZRANO $ =
2017-12-17 16:56 METAR KMUI 172156Z AUTO 00000KT 10SM BKN140 02/M01 A3020 RMK AO2 SLP235
                 T00171009 FZRANO $ =
2017-12-17 15:56 METAR KMUI 172056Z AUTO 00000KT 10SM BKN150 03/M02 A3018 RMK AO2 SLP228
                 T00271018 57012 FZRANO $ =
2017-12-17 14:56 METAR KMUI 171956Z AUTO 00000KT 10SM BKN120 03/M02 A3018 RMK AO2 SLP228
                 T00311018 FZRANO $ =
2017-12-17 13:56 METAR KMUI 171856Z AUTO 07003KT 10SM CLR 03/M02 A3020 RMK AO2 SLP235 T00291018
                 FZRANO $ =
2017-12-17 12:56 METAR KMUI 171756Z AUTO 00000KT 10SM FEW160 03/M02 A3021 RMK AO2 SLP238
                 T00271018 10027 21031 58017 FZRANO $ =
2017-12-17 11:56 METAR KMUI 171656Z AUTO 00000KT 10SM FEW220 02/M02 A3026 RMK AO2 SLP255
                 T00211021 FZRANO $ =
2017-12-17 10:56 METAR KMUI 171556Z AUTO 06004KT 10SM FEW210 02/M02 A3027 RMK AO2 SLP258
                 T00231017 FZRANO $ =
2017-12-17 09:56 METAR KMUI 171456Z AUTO 00000KT 10SM FEW200 01/M01 A3026 RMK AO2 SLP255
                 T00061009 50008 FZRANO $ =
2017-12-17 08:56 METAR KMUI 171356Z AUTO 08003KT 10SM CLR M01/M01 A3025 RMK AO2 SLP251 T10111012
                 FZRANO $ =
2017-12-17 07:56 METAR KMUI 171256Z AUTO 00000KT 10SM CLR M02/M02 A3025 RMK AO2 SLP252 T10251025
                 FZRANO $ =
2017-12-17 06:56 METAR KMUI 171156Z AUTO 00000KT 10SM CLR M03/M03 A3024 RMK AO2 SLP248 T10261027
                 11004 21032 53011 FZRANO $ =
2017-12-17 05:56 METAR KMUI 171056Z AUTO 04003KT 10SM OVC055 M01/M02 A3022 RMK AO2 SLP241
                 T10151016 FZRANO $ =

Support USWX by starting your Amazon purchase here.